Content
SEND FEEDBACK

Daily
Averages
Monthly
Summary
United States of America

NEW YORK - CENTRAL PARK, NEW YORK


Home > North America > United States > New York
Elevation: 14 feet     Latitude: 40 47N     Longitude: 073 58W

WEATHER
 
SELECT A DAY
Number of Records: 148,086;   Date Range: 11/1/95 - 7/26/14
 
SHARE

PRINT THIS DATA

[ ← Previous Day ]
WEATHER ALMANAC - NOVEMBER 5, 2013
[ Next Day → ]
[ °C ]   °F
Weather ElementAverageHighLow
Temperature49 °F55 °F (2:51 pm)42.1 °F (2:51 am)
Dewpoint34.9 °F41 °F (11:51 pm)26.1 °F (1:51 am)
Humidity58.5 %68 % (11:51 pm)50 % (10:51 am)
Barometer30.59 in30.65 in (1:51 am)30.48 in (11:51 pm)
Wind Speed4.1 mph6.9 mph (5:51 am)
Weather ElementAverage
Visibility10 mi
Wind DirectionNNE (29.6 °)

Weather ElementTotal
Precipitation---
Heating Degree Days16.5 (Base 65)
Averaged from 23 records on November 5, 2013
WEATHER CONDITIONS BREAKOUT
WIND DIRECTION BREAKOUT
WEATHER BY HOUR - NOVEMBER 5, 2013
[ °C ]   °F
Local TimeTemperatureDewpointHumidityBarometerVisibilityWind DirectionWind SpeedGust SpeedPrecipitationEventsConditions
1:51 AM43.0 °F26.1 °F51 %30.65 in10.0 miENE (70°)5.8 mphClear
2:51 AM42.1 °F28.0 °F58 %30.61 in10.0 miENE (70°)4.6 mphPartly Cloudy
3:51 AM42.1 °F28.0 °F58 %30.63 in10.0 miEast (80°)4.6 mphClear
4:51 AM43.0 °F30.0 °F60 %30.64 in10.0 miNE (50°)4.6 mphMostly Cloudy
5:51 AM42.1 °F30.9 °F65 %30.64 in10.0 miENE (60°)6.9 mphClear
6:51 AM42.1 °F32.0 °F67 %30.65 in10.0 miENE (60°)5.8 mphClear
7:51 AM45.0 °F33.1 °F63 %30.65 in10.0 miVariable4.6 mphClear
8:51 AM48.0 °F33.1 °F56 %30.64 in10.0 miVariable3.5 mphClear
9:51 AM51.1 °F34.0 °F52 %30.65 in10.0 miSE (140°)5.8 mphOvercast
10:51 AM53.1 °F35.1 °F50 %30.64 in10.0 miNorthPartly Cloudy
11:51 AM53.1 °F36.0 °F52 %30.63 in10.0 miVariable5.8 mphOvercast
12:51 PM53.1 °F36.0 °F52 %30.60 in10.0 miVariable4.6 mphOvercast
1:51 PM53.1 °F36.0 °F52 %30.58 in10.0 miVariable4.6 mphOvercast
2:51 PM55.0 °F37.0 °F51 %30.57 in10.0 miNorthOvercast
3:51 PM52.0 °F37.0 °F57 %30.56 in10.0 miVariable3.5 mphPartly Cloudy
4:51 PM51.1 °F37.0 °F59 %30.55 in10.0 miVariable3.5 mphMostly Cloudy
5:51 PM51.1 °F37.9 °F61 %30.55 in10.0 miCalmClear
6:51 PM51.1 °F37.9 °F61 %30.56 in10.0 miVariable4.6 mphScattered Clouds
7:51 PM51.1 °F37.9 °F61 %30.56 in10.0 miVariable3.5 mphPartly Cloudy
8:51 PM51.1 °F39.0 °F63 %30.54 in10.0 miCalmClear
9:51 PM51.1 °F39.9 °F66 %30.53 in10.0 miCalmPartly Cloudy
10:51 PM52.0 °F39.9 °F63 %30.50 in10.0 miVariable4.6 mphScattered Clouds
11:51 PM51.1 °F41.0 °F68 %30.48 in10.0 miSSE (150°)5.8 mphClear
Hourly data recorded from KNYC, located miles away from New York - Central Park, New York







STORIES FROM OUR PARTNERS